Location: Recife
(8.0585°S, 34.8848°W)
Time: 18:01:12
(UTC-03:00)

N. Korean satellite - Pass Details

Date: 01 October 2021
Orbit: 450 x 495 km, 97.3° (Epoch: 23 October)

Event Time Altitude Azimuth Distance (km) Brightness Sun altitude
Rises 04:12:26 0° 8° (N) 2,558 10.3 -13.5°
Reaches altitude 10° 04:14:29 10° 6° (N) 1,683 9.3 -13.0°
Maximum altitude 04:18:06 74° 282° (WNW) 520 6.5 -12.2°
Drops below altitude 10° 04:21:46 10° 196° (SSW) 1,698 9.2 -11.2°
Sets 04:23:51 0° 193° (SSW) 2,582 10.2 -10.7°
